Regional Weather Roundup
Issued by NWS

Home | Current Version | Previous Version | Text Only | Print | Product List | Glossary Off
Versions: 1 2 3 4 5 6 7 8 9 10 11 12 13 14 15 16 17 18 19 20 21 22 23 24 25 26 27 28 29 30 31 32 33 34 35 36 37 38 39 40 41 42 43 44 45 46 47 48 49 50

000
ASUS44 KMEG 200500
RWRTN
TENNESSEE HOURLY STATE WEATHER ROUNDUP
NATIONAL WEATHER SERVICE MEMPHIS TN
1200 AM CDT WED AUG 20 2014

TNZ002-004-019-021-049-052-054-088>092-200600-
WEST TENNESSEE

CITY           SKY/WX    TMP DP  RH WIND       PRES   REMARKS
MEMPHIS INTL   CLEAR     84  76  76 SW9       29.91R HX  93
NWS MEMPHIS      N/A     84 N/A N/A MISG        N/A
JACKSON        CLEAR     77  73  87 S7        29.89S
DYERSBURG      CLEAR     75  66  73 CALM      29.88S
UNION CITY     CLEAR     75  73  94 S5        29.86S
PARIS          CLEAR     73  72  94 S7        29.89S
LEXINGTON      CLEAR     73  72  94 CALM      29.90R
SAVANNAH       MOCLDY    75  75 100 CALM      29.92S
$$

TNZ008-025-027-028-033-062-065-066-200600-
NORTH MIDDLE TENNESSEE

CITY           SKY/WX    TMP DP  RH WIND       PRES   REMARKS
NASHVILLE      CLEAR     80  72  76 SW6       29.91R
CLARKSVILLE    CLEAR     77  71  82 SW3       29.88R
COOKEVILLE     PTCLDY    72  72 100 CALM      29.95R
CROSSVILLE     CLEAR     72  67  84 CALM      30.01R
$$

TNZ061-075-076-078-094-096-097-200600-
SOUTH MIDDLE TENNESSEE

CITY           SKY/WX    TMP DP  RH WIND       PRES   REMARKS
FAYETTEVILLE   CLEAR     73  72  94 SW5       29.96S
TULLAHOMA      CLEAR     73  72  94 SW5       29.96F
WINCHESTER     CLEAR     73  72  94 CALM      29.97R
COLUMBIA       CLEAR     79  73  83 SW6       29.91S
SHELBYVILLE    CLEAR     75  73  94 S5        29.95R
$$

TNZ017-018-042-046-047-200600-
NORTHEAST TENNESSEE

CITY           SKY/WX    TMP DP  RH WIND       PRES   REMARKS
TRI CITIES     CLEAR     68  65  90 N3        29.97S
ELIZABETHTON   CLEAR     66  64  94 CALM      29.98F
$$

TNZ012-013-036-069-073-074-200600-
CENTRAL EAST TENNESSEE

CITY           SKY/WX    TMP DP  RH WIND       PRES   REMARKS
KNOXVILLE      CLEAR     73  71  93 CALM      29.94R
OAK RIDGE      CLEAR     71  69  93 CALM      29.97R
GATLINBURG     CLEAR     68  66  94 CALM      29.95R
$$

TNZ083-085-099-200600-
SOUTHEAST TENNESSEE

CITY           SKY/WX    TMP DP  RH WIND       PRES   REMARKS
CHATTANOOGA    PTCLDY    76  71  85 S5        29.95S
$$

SKY/WX REPORTED AS FAIR MEANS FEW OR NO CLOUDS BELOW
12 THOUSAND FEET.




USA.gov is the U.S. government's official web portal to all federal, state and local government web resources and services.